Dewpoint
57 58 58 59 59 59 59 60 60 60 60 60 60 60 60 59 58 52 31 42 47 61 54 40 35 35 35 36 34 29 20 17 21 17 20 22 20 20 21 19 19 22 33 21 31
57 58 58 59 59 59 59 60 60 60 60 61 60 60 60 59 51 43 50 61 63 61 37 32 33 34 32 34 34 25 18 16 22 22 25 24 22 23 20 22 21 19 22 23 25
57 58 58 59 59 59 59 60 60 60 60 61 60 60 59 58 30 30 56 61 62 55 37 36 34 33 30 38 35 30 20 24 26 24 26 25 24 26 23 21 22 23 25 25 24
58 58 58 58 58 59 59 60 61 61 61 60 59 59 59 50 21 39 58 59 61 44 36 34 31 30 27 27 31 32 29 27 30 30 27 25 26 25 25 24 28 26 26 26 29
59 58 59 59 59 59 60 60 61 61 61 59 58 58 50 33 30 52 59 58 44 40 34 32 30 30 26 27 26 28 28 28 29 29 27 27 25 24 23 25 23 27 29 29 29
59 59 58 58 59 59 60 60 61 61 60 57 57 58 38 27 46 52 48 41 39 37 34 32 30 31 28 26 24 26 28 26 26 25 24 24 23 24 21 22 21 27 29 30 30
59 59 58 58 59 59 60 60 60 60 59 57 57 54 40 30 49 51 44 41 40 37 34 36 33 30 29 26 28 26 23 22 21 22 22 24 21 22 23 21 22 28 29 30 31
59 58 58 58 58 59 60 60 60 60 57 56 57 50 31 36 47 47 41 39 38 35 35 34 34 32 30 28 24 22 21 18 21 24 24 21 20 21 22 21 22 28 29 29 30
58 58 58 58 58 59 59 60 57 56 57 58 49 41 31 42 38 38 38 36 34 32 32 33 31 29 28 22 19 21 14 20 21 24 23 20 19 21 22 22 24 28 29 28 29
58 58 58 58 58 59 60 58 55 54 54 53 48 37 33 27 34 34 35 35 33 32 30 30 29 26 26 19 18 15 19 20 20 22 21 20 19 21 23 22 24 28 28 28 29
58 58 58 58 59 60 57 51 45 44 48 36 32 31 29 35 36 33 35 34 33 27 23 29 22 20 22 22 18 18 20 20 21 23 22 22 22 23 24 24 26 29 28 28 29
58 58 58 59 60 60 55 48 44 43 40 44 42 36 36 34 34 33 33 28 27 22 27 25 20 22 22 25 24 23 21 20 23 24 23 22 21 23 24 25 25 29 28 28 27
58 58 59 60 58 56 52 46 43 41 40 40 42 43 37 35 36 35 31 30 27 25 26 23 24 26 23 24 23 23 22 23 22 24 24 22 21 22 27 29 30 30 29 28 26
58 58 59 58 56 54 47 45 44 43 35 35 37 33 32 36 34 33 33 30 28 26 26 26 27 26 26 24 24 23 26 25 24 23 22 24 19 21 23 27 29 29 28 27 27
58 58 59 58 52 51 49 46 44 38 28 34 33 36 31 36 32 30 33 31 28 28 27 27 27 26 25 25 27 25 26 25 22 22 21 20 18 20 24 24 27 28 28 27 27
57 58 58 57 56 53 47 46 42 34 29 29 30 28 26 26 29 30 30 29 30 29 28 28 27 25 26 25 27 25 23 25 26 22 19 20 19 20 21 23 26 27 28 27 27
57 58 58 57 54 49 47 46 36 33 36 29 27 28 26 24 27 28 27 26 25 23 24 26 26 26 24 22 24 22 23 21 21 19 20 23 21 20 24 25 27 27 27 27 27
57 58 58 57 53 47 50 44 34 35 36 31 26 28 25 26 25 28 24 24 24 27 25 25 26 25 25 24 23 22 23 23 17 18 19 24 22 24 26 28 28 28 28 27 25
57 57 58 57 50 51 49 38 37 38 38 33 33 26 26 29 26 25 25 25 27 26 29 26 27 26 24 25 25 23 22 27 25 16 19 23 24 24 26 26 27 27 27 26 26
56 55 55 56 51 52 46 40 39 41 38 36 29 32 29 33 30 25 25 29 30 28 30 30 27 28 26 27 27 26 29 24 25 17 16 21 21 22 23 25 26 26 26 26 26
54 49 52 53 53 49 41 41 40 41 36 36 34 33 32 31 31 28 30 32 32 29 30 31 29 28 28 27 26 26 27 28 26 24 18 14 17 23 24 25 25 25 25 25 24
49 45 51 54 45 45 43 42 42 40 39 37 35 34 32 30 32 31 31 31 33 31 30 32 30 25 27 29 31 29 27 28 25 21 24 22 21 26 26 25 25 25 24 24 24
45 44 50 51 41 40 41 41 40 38 38 38 36 35 35 31 30 32 32 34 33 32 32 33 29 21 27 24 29 28 27 28 28 27 21 20 21 25 24 25 24 24 23 24 24
43 38 43 45 43 40 39 39 39 40 38 39 37 36 34 33 34 32 33 34 35 35 39 37 31 28 24 22 26 25 25 25 25 24 24 24 24 25 25 24 24 23 23 23 23
41 38 40 35 38 40 41 40 38 36 39 39 37 36 34 32 32 32 31 34 34 36 34 34 28 28 28 23 26 25 25 25 24 23 21 21 20 21 23 26 26 27 26 25 25
38 37 38 38 40 39 39 38 38 38 37 37 38 36 35 35 34 32 33 33 31 31 32 29 25 27 24 27 28 29 29 27 27 29 27 27 24 24 24 23 18 18 18 21 23
39 39 38 36 37 38 37 38 37 38 37 36 38 37 36 37 38 32 33 32 32 31 29 30 26 24 25 21 23 20 20 21 21 21 20 18 19 17 16 17 16 16 15 13 10
Lifted_Index
8 8 8 8 8 8 8 7 7 7 7 7 7 7 7 8 9 9 9 9 9 9 10 10 9 9 8 8 8 7 5 4 4 5 5 6 6 6 6 6 7 8 8 9 9
9 8 8 8 8 8 7 7 7 7 7 7 7 7 8 8 9 9 9 8 8 9 10 10 9 9 8 8 8 7 5 5 5 6 6 6 6 6 6 6 6 7 8 8 9
9 8 8 8 8 8 7 7 7 7 7 7 7 7 7 8 8 9 9 8 7 8 9 9 9 8 8 8 7 6 6 6 6 7 7 7 6 6 6 6 6 7 8 8 8
8 8 8 8 8 8 7 7 7 7 6 7 7 7 7 7 7 8 8 8 8 9 9 9 9 8 8 7 7 7 6 7 7 7 7 7 6 6 6 7 7 7 8 8 8
8 8 8 8 8 7 7 7 6 6 6 7 7 7 7 6 7 8 8 8 9 10 10 9 9 8 8 7 7 7 6 7 7 7 7 7 6 6 6 7 7 8 8 8 8
8 8 8 8 8 7 7 6 6 6 6 6 7 7 7 6 7 8 8 9 10 10 10 10 9 9 8 7 7 7 6 6 7 7 7 6 5 6 6 7 7 7 8 7 7
7 7 7 7 7 6 6 6 6 6 6 6 7 7 6 7 7 8 8 9 10 10 10 10 9 9 8 7 7 7 6 6 6 6 6 6 5 5 6 7 7 7 7 7 7
7 7 7 7 6 6 6 6 6 6 6 6 7 7 7 7 8 8 8 8 9 9 10 10 9 8 8 7 7 6 5 5 6 6 6 6 5 5 6 6 6 6 6 7 7
6 6 6 6 5 5 5 5 6 6 6 6 7 7 7 7 8 8 8 8 8 9 9 9 8 8 7 6 6 5 5 5 5 6 6 6 6 5 6 6 6 6 6 7 7
6 6 6 5 4 4 5 5 5 6 6 6 6 6 7 7 8 8 9 9 8 8 8 7 7 6 6 6 5 5 5 5 5 6 6 6 6 6 6 6 6 6 6 6 7
6 6 5 5 4 4 4 5 5 5 5 5 6 6 6 7 7 8 8 8 7 7 6 6 6 5 5 6 6 5 5 5 5 6 6 6 6 6 6 6 6 6 6 6 7
6 5 5 4 4 4 4 4 5 5 5 5 5 5 5 6 6 6 7 7 6 5 5 5 5 5 5 6 6 5 5 4 5 6 6 6 6 6 6 6 6 6 6 6 6
5 5 4 4 4 4 4 4 4 4 4 5 5 5 5 5 5 5 6 6 5 5 5 5 5 5 5 5 5 5 4 5 5 5 6 6 6 5 6 6 5 5 6 6 6
5 5 4 4 4 4 4 4 4 4 4 4 5 5 5 5 5 6 6 6 5 5 5 5 5 4 4 4 4 4 5 5 5 5 5 5 5 5 5 5 5 5 5 6 6
5 4 4 4 4 3 3 3 4 4 4 4 5 6 6 5 5 6 7 6 5 5 5 5 4 4 4 4 4 5 5 5 5 5 5 4 4 5 6 5 5 5 5 6 6
4 4 3 3 3 3 3 3 3 3 4 4 5 5 5 5 5 6 6 6 5 5 4 5 5 5 4 4 5 5 5 5 5 4 3 4 4 5 5 5 5 5 5 6 6
4 3 3 3 3 2 2 2 3 3 4 5 4 4 4 4 4 5 5 5 4 4 4 4 4 5 5 4 5 5 4 3 3 2 2 3 4 5 5 5 5 5 5 6 7
4 3 3 3 3 2 2 2 3 4 4 4 4 3 3 3 3 4 4 4 4 3 3 3 3 4 4 4 4 4 4 3 1 1 2 3 4 5 5 5 5 5 5 6 7
4 3 3 3 3 2 2 2 3 4 4 4 3 3 3 3 3 3 3 3 3 3 3 3 3 3 4 3 3 3 3 2 2 1 2 3 4 4 5 5 5 5 6 6 6
3 3 3 3 2 2 1 2 3 4 4 3 3 3 2 2 3 3 3 3 3 3 3 3 3 3 3 3 3 3 3 2 2 2 1 2 3 4 5 5 5 5 5 6 6
2 3 3 3 2 2 2 2 3 4 3 3 2 2 2 2 2 3 3 3 3 3 3 3 3 3 3 3 3 3 3 3 2 2 2 2 3 4 5 5 5 5 5 5 6
2 3 3 3 2 2 2 3 3 3 3 3 2 2 2 2 2 3 3 3 4 3 3 3 4 4 3 3 3 3 3 3 3 3 2 2 3 4 5 5 4 4 4 5 5
2 3 4 4 3 2 2 3 3 3 3 3 2 2 2 2 3 3 3 3 3 3 3 3 3 4 3 3 3 3 3 3 2 2 3 3 3 4 4 4 4 4 4 5 5
4 4 4 4 3 3 2 2 3 3 3 3 3 3 2 3 3 3 3 3 3 3 3 2 3 3 3 3 3 3 3 3 3 3 3 3 3 4 3 3 3 4 4 5 6
5 4 5 4 4 3 3 3 3 4 4 4 3 3 3 3 3 3 3 3 3 3 3 3 3 3 3 3 3 3 3 3 3 3 3 3 4 4 3 3 4 5 5 6 6
6 5 5 4 4 4 4 4 4 4 4 4 4 3 3 3 3 3 3 3 3 4 3 3 3 3 3 3 3 3 4 4 4 3 3 4 4 4 4 4 5 6 6 6 6
7 6 5 4 4 3 4 4 4 4 4 4 4 3 3 3 4 3 3 3 4 4 4 3 3 3 3 3 3 3 4 4 3 3 3 4 4 4 4 5 5 6 6 6 6